Hourly Data Report for June 02, 2021

BORDEN AWOS
ONTARIO
Current Station Operator: DND

44°16'20.000" N
79°54'42.000" W
222.50 m
611B002
71534
YBN

Download Data

Hourly Data (June 2021)
Hourly Data Report for June 2, 2021
TIME
LST
Temp Definition
°C
Dew Point Definition
°C
Rel Hum Definition
%
Precip. Amount Definition
mm

Wind Dir Definition
10's deg

Wind Spd Definition
km/h
Visibility Definition
km
Stn Press Definition
kPa
Hmdx Definition


Wind Chill Definition


Weather Definition


00:00 8.1 5.9 86   18 4 14.5 99.53     LegendNANA
01:00 7.2 5.8 91     0 14.5 99.51     LegendNANA
02:00 5.3 4.4 94   15 4 8.0 99.48     LegendNANA
03:00 4.4 3.5 94     0 14.5 99.47     LegendNANA
04:00 2.8 2.0 95     0 8.0 99.46     LegendNANA
05:00 3.8 2.6 92   15 4 14.5 99.48     LegendNANA
06:00 9.0 7.1 88     0 14.5 99.49     LegendNANA
07:00 14.6 8.8 68     0 14.5 99.46     LegendNANA
08:00 18.7 10.0 57     0 14.5 99.44     LegendNANA
09:00 21.1 8.6 45   15 7 14.5 99.42     LegendNANA
10:00 22.9 9.0 41   15 6 14.5 99.37     LegendNANA
11:00 24.8 7.3 33   12 13 14.5 99.34 25   LegendNANA
12:00 23.7 5.9 32   22 11 14.5 99.29     LegendNANA
13:00 24.8 7.7 34   15 6 14.5 99.21 25   LegendNANA
14:00 24.5 6.6 32   23 9 14.5 99.15     LegendNANA
15:00 24.6 6.8 32   17 7 14.5 99.09 25   LegendNANA
16:00 25.1 6.9 31   18 22 14.5 99.05 25   LegendNANA
17:00 24.5 6.7 32   18 15 14.5 98.99     LegendNANA
18:00 23.0 7.7 37   17 13 14.5 98.94     LegendNANA
19:00 21.6 8.9 44   16 20 14.5 98.93     LegendNANA
20:00 20.3 9.9 51   18 19 14.5 98.95     Rain
21:00 17.8 10.2 61   16 9 14.5 98.95     LegendNANA
22:00 18.1 9.1 56   17 15 14.5 98.93     LegendNANA
23:00 17.2 10.4 64   18 11 14.5 98.92     Rain

Notes on Data Quality.

Legend

  • E = Estimated
  • M = Missing
  • NA = Not Available*
  • [empty] = Indicates an unobserved value
Date modified: